Flag for Canada Weather past 2 weeks in Calgary, Alberta, Canada

Now
55 °F

Mostly cloudy.


Feels Like: 54 °F
Forecast: 42 / 55 °F
Wind: 6 mph from West

Location: Calgary International

Current Time: Sep 2, 2014 at 8:25:01 PM

Latest Report: Sep 2, 2014 at 7:00 PM


Visibility: 30 mi

Pressure: 29.77 "Hg

Humidity: 63%

Dew point: 43 °F

Location of CalgaryLocation

Historic Weather in Calgary — Graph

°F

Calgary temperature yesterday

Maximum temperature yesterday: 68 °F (at 2:00 PM)
Minimum temperature yesterday: 43 °F (at 5:00 AM)
Average temperature yesterday: 55 °F

Past Weeks' High & Low Weather Summary

 TemperatureHumidityPressure
High82 °F (Aug 27, 4:00 PM)100% (Aug 24, 4:00 AM)30.41 "Hg (Aug 24, 4:00 AM)
Low41 °F (Aug 29, 7:00 AM)17% (Aug 27, 4:00 PM)29.69 "Hg (Aug 29, 8:00 PM)
Average56 °F68%30.00 "Hg
* Reported Aug 18 7:00 PM — Sep 2 7:00 PM, Calgary, Weather by CustomWeather, © 2014

Note: Actual official high and low records may vary slightly from our data, if they occured in-between our weather recording intervals... More about our weather records

Advertising

Calgary weather history for previous 24 hours

 ConditionsComfort  
Time TempWeatherWind HumidityBarometerVisibility
7:00 PM
Sep 2
55 °FMostly cloudy.6 mph63%29.77 "Hg30 mi
6:00 PM57 °FMostly cloudy.No wind55%29.78 "Hg30 mi
5:00 PM57 °FMostly cloudy.9 mph59%29.79 "Hg30 mi
4:00 PM55 °FLight rain. Mostly cloudy.3 mph55%29.80 "Hg30 mi
3:00 PM54 °FLight rain. Mostly cloudy.8 mph67%29.83 "Hg20 mi
2:00 PM55 °FLight rain. Mostly cloudy.9 mph67%29.82 "Hg20 mi
1:00 PM55 °FLight rain. More clouds than sun.6 mph63%29.81 "Hg20 mi
12:00 PM57 °FMore clouds than sun.13 mph55%29.80 "Hg30 mi
11:00 AM55 °FLight rain. Mostly cloudy.12 mph63%29.80 "Hg30 mi
10:00 AM55 °FMostly cloudy.18 mph55%29.81 "Hg40 mi
9:00 AM55 °FCloudy.8 mph63%29.77 "Hg30 mi
8:00 AM50 °FMore clouds than sun.5 mph67%29.78 "Hg30 mi
7:00 AM50 °FPassing clouds.5 mph67%29.77 "Hg30 mi
6:00 AM50 °FPassing clouds.7 mph71%29.78 "Hg15 mi
5:00 AM48 °FScattered showers. Passing clouds.6 mph71%29.79 "Hg15 mi
4:00 AM50 °FSprinkles. Mostly cloudy.7 mph67%29.79 "Hg15 mi
3:00 AM52 °FSprinkles. Mostly cloudy.6 mph67%29.81 "Hg15 mi
2:00 AM50 °FPassing clouds.6 mph71%29.82 "Hg15 mi
1:00 AM50 °FPartly cloudy.5 mph71%29.83 "Hg15 mi
12:00 AM50 °FOvercast.No wind67%29.85 "Hg15 mi
11:00 PM
Sep 1
46 °FPassing clouds.6 mph76%29.86 "Hg15 mi
10:00 PM50 °FPassing clouds.8 mph67%29.87 "Hg15 mi
9:00 PM61 °FBroken clouds.15 mph36%29.82 "Hg15 mi
8:00 PM61 °FBroken clouds.16 mph36%29.81 "Hg20 mi
Weather by CustomWeather, © 2014

See weather overviewHow to use our weather pages